Temp
25 25 25 25 26 26 26 27 29 29 30 30 30 30 30 29 29 29 28 28 29 29
24 25 25 25 26 26 27 29 30 29 28 28 29 29 29 28 27 28 28 28 28 28
25 25 25 26 25 26 27 27 27 27 27 27 27 28 27 27 27 27 27 29 28 29
25 25 26 26 26 26 26 26 26 26 26 26 26 27 26 26 26 26 26 27 27 28
24 25 24 24 25 26 25 26 26 26 26 26 26 26 26 25 26 25 25 26 26 26
23 22 22 23 24 25 25 25 25 26 25 25 26 25 26 26 25 25 25 25 25 26
21 23 23 23 24 24 25 24 24 24 25 25 25 26 26 27 26 25 26 26 26 26
22 23 23 23 23 24 24 24 24 24 24 24 25 27 26 27 25 25 25 26 27 28
21 22 22 22 22 22 22 22 22 22 23 23 26 29 32 32 28 27 27 27 28 27
21 20 21 21 21 20 20 21 21 21 22 22 25 31 33 33 30 29 28 29 29 29
19 19 19 19 19 19 20 20 20 22 23 24 26 32 33 34 30 29 29 29 29 29
18 17 17 17 17 18 19 20 21 24 24 25 25 31 33 32 28 28 28 30 30 30
17 17 16 16 17 19 20 21 24 24 25 27 26 31 33 33 29 27 28 30 31 34
16 15 16 17 18 19 21 22 21 22 25 27 29 29 33 34 30 29 29 30 31 32
MSLP
1032.60 1032.38 1032.11 1031.40 1030.87 1030.33 1029.66 1028.87 1028.24 1027.77 1027.37 1026.85 1026.27 1025.77 1025.31 1024.89 1024.38 1023.83 1023.31 1022.89 1022.58 1022.15
1032.17 1031.89 1031.32 1030.74 1030.28 1029.64 1028.96 1028.18 1027.55 1027.07 1026.58 1026.12 1025.68 1025.14 1024.58 1024.02 1023.44 1023.03 1022.50 1021.95 1021.58 1021.24
1032.01 1031.46 1030.92 1030.45 1029.62 1028.78 1028.14 1027.54 1026.99 1026.36 1025.72 1025.14 1024.76 1024.38 1023.90 1023.18 1022.56 1022.06 1021.48 1021.02 1020.63 1020.15
1031.50 1031.02 1030.59 1029.97 1029.07 1028.52 1027.66 1026.96 1026.24 1025.73 1024.99 1024.25 1023.73 1023.27 1022.76 1022.09 1021.45 1020.88 1020.31 1020.09 1019.70 1019.01
1031.25 1030.55 1029.87 1029.25 1028.74 1027.82 1026.93 1026.17 1025.46 1024.82 1024.11 1023.32 1022.72 1022.12 1021.48 1020.66 1020.14 1019.59 1019.04 1018.73 1018.44 1017.79
1030.80 1030.32 1029.54 1028.76 1027.72 1027.19 1026.31 1025.43 1024.65 1023.88 1023.14 1022.32 1021.53 1020.77 1020.11 1019.41 1018.74 1018.23 1017.76 1017.50 1017.13 1016.63
1030.26 1029.52 1028.88 1027.86 1027.12 1026.09 1025.45 1024.54 1023.82 1023.01 1022.05 1021.22 1020.34 1019.49 1018.63 1017.89 1017.13 1016.53 1016.00 1015.64 1015.26 1014.91
1029.58 1028.92 1027.87 1027.08 1026.09 1025.14 1024.53 1023.76 1022.87 1021.93 1021.07 1020.11 1019.17 1018.05 1017.10 1016.17 1015.27 1014.49 1013.85 1013.43 1013.00 1012.66
1029.51 1028.69 1028.01 1026.85 1025.64 1024.45 1023.59 1022.83 1021.82 1021.04 1020.00 1018.89 1017.74 1016.51 1015.47 1014.27 1013.28 1012.48 1011.77 1011.10 1010.64 1010.36
1028.96 1027.74 1026.77 1026.24 1025.43 1023.96 1022.77 1021.83 1020.92 1019.87 1018.74 1017.57 1016.23 1014.91 1013.64 1012.47 1011.33 1010.36 1009.64 1009.01 1008.40 1007.89
1028.79 1028.10 1026.52 1025.53 1024.74 1023.45 1022.06 1020.97 1019.88 1018.59 1017.34 1016.13 1014.64 1013.34 1011.94 1010.72 1009.72 1008.82 1007.98 1007.27 1006.69 1006.11
1028.16 1027.17 1026.38 1025.08 1023.93 1022.77 1021.37 1019.93 1018.69 1017.26 1015.98 1014.73 1013.29 1011.93 1010.46 1009.28 1008.29 1006.96 1005.87 1005.04 1004.40 1003.97
1027.94 1026.75 1025.90 1024.71 1023.31 1021.92 1020.73 1019.08 1017.65 1016.11 1014.93 1013.56 1011.87 1010.55 1009.15 1007.85 1006.71 1005.23 1003.96 1002.72 1001.76 1001.10
1027.33 1026.25 1025.11 1023.91 1022.56 1021.09 1019.68 1018.33 1016.87 1015.31 1013.73 1012.31 1010.88 1009.37 1008.00 1006.63 1005.21 1003.55 1001.99 1000.78 999.54 998.58
Wind_Speed
6 5 6 7 8 8 8 9 11 11 12 13 14 13 13 11 11 12 11 14 12 11
6 8 9 11 10 9 10 10 13 13 14 14 15 15 14 12 14 13 13 13 14 13
9 10 10 11 13 13 13 14 15 15 15 15 15 15 15 14 14 15 12 11 15 15
10 11 12 12 13 13 14 14 15 16 16 16 16 16 15 17 17 18 17 16 17 19
12 12 13 13 15 15 16 15 16 16 17 17 17 17 17 18 17 18 19 18 18 19
13 13 14 15 15 16 16 17 16 17 17 18 18 18 18 19 19 19 19 19 19 19
13 14 15 16 16 16 16 17 17 16 17 18 19 19 19 20 20 20 19 20 20 20
13 14 14 16 16 16 16 16 17 18 17 18 17 15 18 19 19 20 21 21 22 22
14 14 16 17 17 17 17 17 17 17 18 19 15 29 34 31 20 21 21 20 20 19
14 15 16 17 18 17 17 16 18 18 18 19 20 34 36 36 21 19 18 18 17 17
14 17 17 17 18 17 16 17 17 18 19 19 18 34 37 36 22 18 19 19 19 20
15 16 18 18 18 18 17 17 18 18 20 21 21 33 36 32 19 18 20 20 21 20
15 15 17 18 18 16 17 17 15 19 20 25 22 30 35 32 16 18 16 19 21 33
15 15 16 17 16 15 16 16 18 19 18 19 20 21 34 33 19 15 15 14 14 15
Wind_Direction
295 297 295 290 294 295 292 290 292 287 284 284 286 286 283 279 275 271 266 263 256 257
302 306 297 295 295 295 290 289 290 290 286 283 283 282 282 277 276 273 271 267 264 260
305 298 296 297 293 291 291 292 291 290 286 284 282 280 278 276 273 272 269 267 267 265
304 304 299 293 291 290 290 289 287 287 286 285 284 279 275 272 272 269 268 265 265 266
302 298 297 294 292 291 289 288 286 287 286 284 281 279 275 273 270 268 267 265 263 263
303 302 295 293 293 293 291 290 289 288 285 284 281 279 275 273 271 268 265 264 263 263
297 295 294 293 293 292 293 293 291 287 286 285 283 281 278 275 271 267 261 257 253 252
293 294 294 294 295 297 297 293 291 291 289 286 284 280 280 273 268 262 258 254 252 247
307 307 304 303 303 302 298 295 295 293 290 289 284 287 290 289 280 272 267 264 257 242
306 303 305 305 303 301 301 301 298 294 292 289 286 289 293 291 287 282 276 271 268 261
309 308 308 307 303 303 303 302 299 297 295 292 289 295 298 298 296 289 282 275 266 261
313 309 308 306 305 304 304 303 300 299 300 297 294 292 301 304 294 281 274 269 263 257
306 306 303 302 302 304 300 298 303 302 299 295 294 297 302 306 294 286 279 270 261 256
305 305 300 301 302 302 305 305 303 301 299 298 298 304 306 307 303 295 294 288 279 265